Simultaneous Nadir Overpasses (SNOs) Predictions

Prediction of SNOs between LANDSAT-8 and NOAA-19 Satellite Orbit:

Table of predicted SNOs for the next 14.0 days since TLE Epoch: 1/14/2017
Index Date (LANDSAT-8) Time (LANDSAT-8) Lat,Lon (LANDSAT-8) SZA (LANDSAT-8 ) Date (NOAA-19) Time (NOAA-19) Lat,Lon (NOAA-19) SZA (NOAA-19 ) Distance(km) Time Diff (sec)
1 01/15/2017 10:57:41 76.05, 23.94 97.08 01/15/2017 10:56:34 76.07, 21.23 97.05 72.44 67
2 01/15/2017 11:47:18 -75.58,-169.83 83.43 01/15/2017 11:47:29 -75.60,-169.88 83.41 2.81 11
3 01/17/2017 16:31:33 -75.67, 119.36 83.77 01/17/2017 16:30:24 -75.65, 119.29 83.79 2.98 69
4 01/17/2017 17:21:00 75.60, -73.20 96.16 01/17/2017 17:21:19 75.59, -73.25 96.15 1.48 19
5 01/19/2017 22:05:16 75.63,-144.17 95.73 01/19/2017 22:04:14 75.64,-144.08 95.73 2.51 62
6 01/19/2017 22:54:45 -75.56, 23.26 84.36 01/19/2017 22:55:18 -75.58, 23.36 84.34 3.07 33
7 01/22/2017 03:39:00 -75.65, -47.56 84.76 01/22/2017 03:38:13 -75.64, -47.51 84.77 2.08 47
8 01/22/2017 04:28:27 75.57, 119.86 95.16 01/22/2017 04:29:09 75.61, 119.85 95.20 3.97 42
9 01/24/2017 09:12:42 75.65, 49.02 94.72 01/24/2017 09:12:04 75.66, 49.00 94.73 1.03 38
10 01/24/2017 10:02:11 -75.59,-143.54 85.36 01/24/2017 10:03:07 -75.57,-143.48 85.37 2.09 56
11 01/26/2017 14:46:26 -75.67, 145.62 85.83 01/26/2017 14:46:02 -75.64, 145.63 85.85 2.48 24




NCC Satellite Simultaneous Nadir Overpasses (SNOs) Prediction Service
